SL-16 DEB, 22601

Orbit data source: Space-Track

SL-16 DEB, 22601 is space debris in LEO originally from a launch on Fri, 26 Mar 1993 UTC launched from the Tyuratam Missile And Space Complex (TTMTR). Debris objects in space refer to the collection of defunct objects orbiting the Earth. Examples of debris include non-operational satellites, rocket bodies, and fragments generated from explosions, collisions, or faulty payload assembly.

Loading next visibility...
Identifier
22601, 1993-016K
Orbit
LEO
Country
Flag of CISCIS
Related business
Manufacturer
Unknown
Mission
Spacecraft
Bus & Motor
Unknown
Mass
Unknown
Launch date (UTC)
1993-03-26 (33 years ago)
Launch vehicle
Unknown
Launch site
Tyuratam Missile And Space Complex (TTMTR)
Object type
Payload
Rocket body
Debris
Shape & HBR
Unknown shape, 0.2 m
Radar Cross Section
Small (<0.1 m²)

Expand to show TLE details & history
Last TLE update: 10 hours ago

TLE from 10 hours ago
0 SL-16 DEB
1 22601U 93016K   26035.40620879  .00000061  00000-0  90227-4 0  9993
2 22601  71.0423  20.4864 0172855 105.9328 256.0899 13.79079100652863
Epoch: 2026-02-04T09:44Z
TLE epoch observation values (Epoch: 2026-02-04T09:44:56.439Z)
Latitude
0.00004°
Longitude
99.678°
Altitude
1,002.101 km
Speed
7.335 km/s
True Right ascension
01h 21m 56s
True Declination
0° 00' 00"
Sunlit
Object was in daylight at epoch
Visualization orbit readout
Latitude
Unknown
Longitude
Unknown
Altitude
Unknown
Speed
Unknown
Apparent Right ascension
Unknown
Apparent Declination
Unknown
Sunlit
N/A
Visualization observer readout
Local Sidereal Time
21:37:56
Azimuth
Unknown
Elevation
Unknown
Doppler factor
Unknown
Orbital elements
Apogee altitude
1,092.042 km
Perigee altitude
838.178 km
Semi-major axis
7,343.247 km
Eccentricity
0.01729
Inclination
71.0423°
RAAN
20.4864°
Arg. of periapsis
105.9328°
True anomaly
254.17751°
Mean anomaly
256.0899°
Eccentric anomaly
255.13267°
Mean motion
3.44914 °/min
Orbital period
104.37 mins
BSTAR
0.000090227
Loading maneuver chart data...
Computing Atmospheric mass density...
Loading historical data...
Loading historical data...
Loading historical data...
Loading historical data...
Loading historical data...
Loading historical data...
Loading historical data...

Documentation

Showing up to 5 results
|